Regional Weather Roundup
Issued by NWS Cleveland, OH

Home | Current Version | Previous Version | Graphics & Text | Print | Product List | Glossary On
Versions: 1 2 3 4 5 6 7 8 9 10 11 12 13 14 15 16 17 18 19 20 21 22 23 24 25 26 27 28 29 30 31 32 33 34 35 36 37 38 39 40 41 42 43 44 45 46 47 48 49 50
000
ASUS41 KCLE 201810
RWRCLE
OHIO REGIONAL WEATHER ROUNDUP
NATIONAL WEATHER SERVICE WILMINGTON, OH
100 PM EST MON FEB 20 2017

NOTE: "FAIR" INDICATES FEW OR NO CLOUDS BELOW 12,000 FEET WITH NO
SIGNIFICANT WEATHER AND/OR OBSTRUCTIONS TO VISIBILITY.

OHZ001>008-015>018-024>027-034-035-043-044-201900-
   NORTHWEST OHIO

CITY           SKY/WX    TMP DP  RH WIND       PRES   REMARKS
DEFIANCE       NOT AVBL
FINDLAY        FAIR      61  36  39 E10       30.21F
TOLEDO EXPRESS FAIR      54  36  50 E10       30.24F
TOLEDO EXEC    FAIR      54  37  52 E10       30.25F
LIMA           FAIR      63  39  41 SE12      30.20F
$$

OHZ009>014-019>023-028>033-038-089-201900-
   NORTHEAST OHIO

CITY           SKY/WX    TMP DP  RH WIND       PRES   REMARKS
CLE-HOPKINS    PTSUNNY   57  33  40 N8        30.28F
CLE-LAKEFRONT  FAIR      40  34  79 NE9       30.27F
CUY CO. ARPT   MOSUNNY   55  36  47 N7        30.27F
LORAIN-ELYRIA  FAIR      57  33  40 VRB6      30.25F
ASHTABULA      FAIR      51  32  48 E3        30.28F
AKRON-CANTON   PTSUNNY   58  35  42 S6        30.26S
WOOSTER        FAIR      56  38  50 S6        30.25F
MANSFIELD      FAIR      59  35  40 E9        30.23F
YOUNGSTOWN     FAIR      53  29  39 E5        30.27F
$$

OHZ042-051>053-060>062-070>072-077>081-201900-
  SOUTHWEST OHIO

CITY           SKY/WX    TMP DP  RH WIND       PRES   REMARKS
CINC-COVINGTON PTSUNNY   58  49  72 VRB6      30.20F
CINC-LUNKEN    FAIR      57  50  77 VRB3      30.21F
HAMILTON       FAIR      60  47  61 E5        30.21F
DAYTON         PTSUNNY   56  47  71 E7        30.21F
WRIGHT-PAT AFB PTSUNNY   57  57 100 VRB7      30.20F
DAYTON GENERAL FAIR      59  49  69 SE7       30.20F
WILMINGTON     FAIR      59  46  62 SE9       30.20F
$$

OHZ036-037-039>041-045>050-054>059-063>069-073>076-082>088-201900-
  CENTRAL AND SOUTHEAST OHIO

CITY           SKY/WX    TMP DP  RH WIND       PRES   REMARKS
COLUMBUS       PTSUNNY   51  46  83 CALM      30.24F HAZE
OSU AIRPORT    FAIR      52  45  77 SE6       30.24F
BOLTON FIELD   PTSUNNY   48  48 100 S3        30.25F FOG
RICKENBACK AFB CLOUDY    47  47 100 CALM      30.24F FOG
NEWARK         FAIR      53  46  77 CALM      30.24F
MARION         FAIR      61  36  39 S5        30.23F
LANCASTER      FAIR      59  49  69 NW6       30.24F
ZANESVILLE     PTSUNNY   51  45  79 N5        30.24F HAZE
NEW PHILLY     FAIR      53  43  68 VRB6      30.27F
$$



USA.gov is the U.S. government's official web portal to all federal, state and local government web resources and services.